Location: ?????????
(54.7630°N, 39.4991°E)
Time: 18:54:51
(UTC+00:00)

ARGOS Delta rocket - Pass Details

Date: 14 April 2026
Orbit: 631 x 825 km, 96.5° (Epoch: 19 May)

Event Time Altitude Azimuth Distance (km) Brightness Sun altitude
Rises 22:07:51 0° 7° (N) 2,941 8.4 -24.9°
Reaches altitude 10° 22:10:08 10° 0° (N) 2,034 7.2 -24.8°
Maximum altitude 22:14:13 39° 292° (WNW) 977 4.5 -24.6°
Enters shadow 22:14:28 38° 284° (WNW) 983 4.5 -24.6°
